| time (UTC) | temp F | wind direction | speed MPH | gust MPH | rain 1hr in | rain 24hr in | rain mn in | humidity % | barometer mb |
| 20260503232623 | 78 | 32 | 3.0 | 6.0 | 0.00 | 0.00 | 0.00 | 46 | 1011.8 |
| 20260503231631 | 78 | 42 | 2.0 | 6.0 | 0.00 | 0.00 | 0.00 | 45 | 1012.0 |
| 20260503230623 | 78 | 295 | 4.0 | 9.0 | 0.00 | 0.00 | 0.00 | 45 | 1012.1 |
| 20260503225631 | 78 | 343 | 2.0 | 5.0 | 0.00 | 0.00 | 0.00 | 46 | 1012.3 |
| 20260503224644 | 78 | 22 | 3.0 | 8.0 | 0.00 | 0.00 | 0.00 | 46 | 1012.4 |
| 20260503223631 | 77 | 323 | 3.0 | 5.0 | 0.00 | 0.00 | 0.00 | 47 | 1012.6 |
| 20260503222623 | 79 | 15 | 5.0 | 9.0 | 0.00 | 0.00 | 0.00 | 46 | 1012.7 |
| 20260503221632 | 77 | 359 | 2.0 | 5.0 | 0.00 | 0.00 | 0.00 | 45 | 1012.8 |
| 20260503220623 | 77 | 318 | 7.0 | 13.0 | 0.00 | 0.00 | 0.00 | 47 | 1012.9 |
| 20260503215652 | 77 | 312 | 4.0 | 10.0 | 0.00 | 0.00 | 0.00 | 49 | 1013.0 |
| 20260503214624 | 78 | 314 | 5.0 | 9.0 | 0.00 | 0.00 | 0.00 | 47 | 1013.0 |
| 20260503213631 | 78 | 11 | 5.0 | 10.0 | 0.00 | 0.00 | 0.00 | 47 | 1013.1 |
| 20260503212623 | 78 | 314 | 5.0 | 10.0 | 0.00 | 0.00 | 0.00 | 42 | 1013.2 |
| 20260503211631 | 79 | 292 | 3.0 | 6.0 | 0.00 | 0.00 | 0.00 | 41 | 1013.2 |
| 20260503210624 | 78 | 15 | 3.0 | 6.0 | 0.00 | 0.00 | 0.00 | 42 | 1013.3 |
| 20260503205651 | 77 | 349 | 5.0 | 11.0 | 0.00 | 0.00 | 0.00 | 43 | 1013.5 |
| 20260503204624 | 76 | 315 | 4.0 | 8.0 | 0.00 | 0.00 | 0.00 | 44 | 1013.6 |
| 20260503203652 | 76 | 340 | 5.0 | 9.0 | 0.00 | 0.00 | 0.00 | 45 | 1013.8 |
| 20260503202700 | 76 | 281 | 5.0 | 11.0 | 0.00 | 0.00 | 0.00 | 45 | 1013.9 |
| 20260503201632 | 75 | 307 | 7.0 | 15.0 | 0.00 | 0.00 | 0.00 | 45 | 1014.0 |
| 20260503200640 | 76 | 14 | 3.0 | 9.0 | 0.00 | 0.00 | 0.00 | 47 | 1014.0 |
| 20260503195631 | 75 | 318 | 4.0 | 10.0 | 0.00 | 0.00 | 0.00 | 48 | 1014.2 |
| 20260503194623 | 76 | 339 | 5.0 | 15.0 | 0.00 | 0.00 | 0.00 | 48 | 1014.4 |
| 20260503193632 | 76 | 337 | 3.0 | 10.0 | 0.00 | 0.00 | 0.00 | 47 | 1014.5 |
| 20260503192624 | 76 | 350 | 4.0 | 8.0 | 0.00 | 0.00 | 0.00 | 48 | 1014.6 |
| 20260503191753 | 76 | 12 | 4.0 | 8.0 | 0.00 | 0.00 | 0.00 | 51 | 1014.7 |
| 20260503190623 | 77 | 317 | 2.0 | 6.0 | 0.00 | 0.00 | 0.00 | 50 | 1014.8 |
| 20260503185632 | 75 | 309 | 4.0 | 7.0 | 0.00 | 0.00 | 0.00 | 53 | 1014.9 |
| 20260503184624 | 74 | 310 | 4.0 | 7.0 | 0.00 | 0.00 | 0.00 | 54 | 1014.9 |
| 20260503183632 | 73 | 328 | 4.0 | 7.0 | 0.00 | 0.00 | 0.00 | 55 | 1015.0 |
| 20260503182624 | 73 | 300 | 4.0 | 8.0 | 0.00 | 0.00 | 0.00 | 57 | 1015.0 |
| 20260503181631 | 73 | 318 | 3.0 | 9.0 | 0.00 | 0.00 | 0.00 | 56 | 1015.1 |
| 20260503180644 | 72 | 304 | 4.0 | 8.0 | 0.00 | 0.00 | 0.00 | 56 | 1015.2 |
| 20260503175632 | 73 | 292 | 3.0 | 6.0 | 0.00 | 0.00 | 0.00 | 55 | 1015.2 |
| 20260503174644 | 72 | 292 | 4.0 | 8.0 | 0.00 | 0.00 | 0.00 | 57 | 1015.4 |
| 20260503173632 | 71 | 311 | 4.0 | 6.0 | 0.00 | 0.00 | 0.00 | 60 | 1015.4 |
| 20260503172624 | 71 | 318 | 2.0 | 5.0 | 0.00 | 0.00 | 0.00 | 59 | 1015.4 |
| 20260503171632 | 71 | 17 | 3.0 | 7.0 | 0.00 | 0.00 | 0.00 | 60 | 1015.4 |
| 20260503170623 | 70 | 353 | 2.0 | 7.0 | 0.00 | 0.00 | 0.00 | 61 | 1015.5 |
| 20260503150640 | 64 | 34 | 3.0 | 6.0 | 0.00 | 0.00 | 0.00 | 69 | 1015.8 |
| 20260503130624 | 58 | 53 | 2.0 | 3.0 | 0.00 | 0.00 | 0.00 | 79 | 1015.6 |
| 20260503110625 | 60 | 37 | 1.0 | 2.0 | 0.00 | 0.00 | 0.00 | 71 | 1015.8 |
| 20260503081633 | 64 | 42 | 4.0 | 7.0 | 0.00 | 0.00 | 0.00 | 61 | 1015.8 |
| 20260503080640 | 64 | 19 | 2.0 | 5.0 | 0.00 | 0.00 | 0.00 | 60 | 1015.8 |
| 20260503072624 | 65 | 47 | 3.0 | 6.0 | 0.00 | 0.00 | 0.00 | 58 | 1015.7 |
| 20260503071704 | 65 | 37 | 1.0 | 3.0 | 0.00 | 0.00 | 0.00 | 58 | 1015.7 |
| 20260503070624 | 65 | 31 | 2.0 | 5.0 | 0.00 | 0.00 | 0.00 | 58 | 1015.7 |
| 20260503054624 | 66 | 44 | 4.0 | 7.0 | 0.00 | 0.00 | 0.00 | 58 | 1015.5 |
| 20260503053633 | 66 | 56 | 4.0 | 8.0 | 0.00 | 0.00 | 0.00 | 58 | 1015.5 |
| 20260503052624 | 67 | 28 | 3.0 | 6.0 | 0.00 | 0.00 | 0.00 | 58 | 1015.6 |
| 20260503051652 | 67 | 52 | 3.0 | 6.0 | 0.00 | 0.00 | 0.00 | 57 | 1015.5 |
| 20260503050625 | 67 | 44 | 3.0 | 6.0 | 0.00 | 0.00 | 0.00 | 57 | 1015.5 |
| 20260503045632 | 67 | 31 | 5.0 | 10.0 | 0.00 | 0.00 | 0.00 | 57 | 1015.5 |
| 20260503044624 | 67 | 44 | 4.0 | 6.0 | 0.00 | 0.00 | 0.00 | 57 | 1015.4 |
| 20260503043632 | 68 | 29 | 4.0 | 7.0 | 0.00 | 0.00 | 0.00 | 56 | 1015.4 |
| 20260503042624 | 68 | 41 | 4.0 | 8.0 | 0.00 | 0.00 | 0.00 | 56 | 1015.2 |
| 20260503041632 | 68 | 62 | 4.0 | 7.0 | 0.00 | 0.00 | 0.00 | 56 | 1015.1 |
| 20260503040644 | 68 | 41 | 5.0 | 8.0 | 0.00 | 0.00 | 0.00 | 55 | 1015.0 |
| 20260503035632 | 68 | 40 | 3.0 | 6.0 | 0.00 | 0.00 | 0.00 | 55 | 1014.9 |
| 20260503034624 | 69 | 38 | 4.0 | 7.0 | 0.00 | 0.00 | 0.00 | 55 | 1014.8 |
| 20260503033632 | 69 | 41 | 3.0 | 7.0 | 0.00 | 0.00 | 0.00 | 55 | 1014.7 |
| 20260503032624 | 69 | 28 | 3.0 | 6.0 | 0.00 | 0.00 | 0.00 | 56 | 1014.5 |
| 20260503031632 | 69 | 28 | 3.0 | 5.0 | 0.00 | 0.00 | 0.00 | 57 | 1014.5 |
| 20260503030645 | 69 | 28 | 3.0 | 7.0 | 0.00 | 0.00 | 0.00 | 56 | 1014.4 |
| 20260503025633 | 70 | 25 | 5.0 | 8.0 | 0.00 | 0.00 | 0.00 | 57 | 1014.3 |
| 20260503024624 | 70 | 15 | 4.0 | 7.0 | 0.00 | 0.00 | 0.00 | 56 | 1014.3 |
| 20260503023632 | 70 | 24 | 4.0 | 7.0 | 0.00 | 0.00 | 0.00 | 56 | 1014.3 |
| 20260503022624 | 70 | 353 | 5.0 | 10.0 | 0.00 | 0.00 | 0.00 | 57 | 1014.2 |
| 20260503021632 | 71 | 19 | 3.0 | 8.0 | 0.00 | 0.00 | 0.00 | 56 | 1014.2 |
| 20260503020625 | 71 | 24 | 3.0 | 7.0 | 0.00 | 0.00 | 0.00 | 56 | 1014.2 |
| 20260503015814 | 71 | 14 | 4.0 | 9.0 | 0.00 | 0.00 | 0.00 | 55 | 1014.3 |
| 20260503014625 | 71 | 21 | 5.0 | 10.0 | 0.00 | 0.00 | 0.00 | 56 | 1014.2 |
| 20260503013632 | 72 | 20 | 5.0 | 13.0 | 0.00 | 0.00 | 0.00 | 55 | 1014.3 |
| 20260503012625 | 72 | 23 | 5.0 | 10.0 | 0.00 | 0.00 | 0.00 | 54 | 1014.3 |
| 20260503011633 | 72 | 15 | 5.0 | 9.0 | 0.00 | 0.00 | 0.00 | 54 | 1014.3 |
| 20260503010624 | 72 | 14 | 6.0 | 8.0 | 0.00 | 0.00 | 0.00 | 53 | 1014.3 |
| 20260503005632 | 72 | 357 | 4.0 | 9.0 | 0.00 | 0.00 | 0.00 | 54 | 1014.3 |
| 20260503004640 | 72 | 3 | 5.0 | 9.0 | 0.00 | 0.00 | 0.00 | 55 | 1014.4 |
| 20260503003653 | 72 | 359 | 5.0 | 8.0 | 0.00 | 0.00 | 0.00 | 55 | 1014.5 |
| 20260503002624 | 73 | 50 | 3.0 | 8.0 | 0.00 | 0.00 | 0.00 | 55 | 1014.6 |
| 20260503001633 | 72 | 19 | 3.0 | 7.0 | 0.00 | 0.00 | 0.00 | 55 | 1014.7 |
| 20260503000625 | 71 | 30 | 5.0 | 13.0 | 0.00 | 0.00 | 0.00 | 57 | 1014.8 |
| 20260502235632 | 72 | 13 | 4.0 | 8.0 | 0.00 | 0.00 | 0.00 | 57 | 1014.8 |
| 20260502234645 | 71 | 10 | 5.0 | 9.0 | 0.00 | 0.00 | 0.00 | 58 | 1014.9 |
| 20260502233632 | 72 | 14 | 3.0 | 7.0 | 0.00 | 0.00 | 0.00 | 57 | 1015.0 |